Location: Paris
(48.6709°N, 2.3750°E)
Time: 11:54:56
(UTC+02:00)

CAS-4B - Pass Details

Date: 05 July 2022
Orbit: 522 x 536 km, 43.0° (Epoch: 17 August)

Event Time Altitude Azimuth Distance (km) Brightness Sun altitude
Exits shadow 03:56:06 23° 219° (SW) 1,140 ? -13.6°
Maximum altitude 03:57:52 34° 172° (S) 867 ? -13.4°
Drops below altitude 10° 04:01:33 10° 107° (ESE) 1,763 ? -13.1°
Sets 04:03:54 0° 98° (E) 2,655 ? -13.0°
